Miscellaneous Local Product
Issued by NWS Hastings, NE

Home | Current Version | Previous Version | Graphics & Text | Print | Product List | Glossary On
Versions: 1 2 3 4 5 6 7 8 9 10 11 12 13 14 15 16 17 18 19 20 21 22 23 24 25 26 27 28 29 30 31 32 33 34 35 36 37 38 39 40 41 42 43 44 45 46 47 48 49 50
094
AXUS43 KGID 232102
MISGRI

GID CWA HOURLY WEATHER ROUNDUP
NATIONAL WEATHER SERVICE HASTINGS NE
400 PM CDT SAT JUL 23 2016

NOTE: "FAIR" INDICATES FEW OR NO CLOUDS BELOW 12,000 FEET WITH NO
SIGNIFICANT WEATHER AND/OR OBSTRUCTIONS TO VISIBILITY.

...SOUTH CENTRAL NEBRASKA...

CITY           SKY/WX    TMP DP  RH WIND       PRES   REMARKS
GRAND ISLAND   CLOUDY    96  71  44 S12       29.81F HX 103
HASTINGS       CLOUDY    96  69  41 SW7       29.83F HX 102
KEARNEY        SUNNY     93  70  46 SW9       29.85S HX  99
ORD            CLOUDY    90  72  55 S9        29.80S HX  97
YORK           SUNNY     91  75  59 S12       29.82S HX 102
AURORA         SUNNY     93  71  47 S9        29.81F HX 100
LEXINGTON      SUNNY     92  71  49 S3        29.85S HX  99
HOLDREGE       SUNNY     93  67  42 S7        29.85F HX  96
HEBRON         CLOUDY    93  71  47 S12G18    29.82F HX 100

...NEBRASKA PANHANDLE...

CITY           SKY/WX    TMP DP  RH WIND       PRES   REMARKS
CHADRON        SUNNY     93  51  23 NE10G17   29.92F HX  90
ALLIANCE       SUNNY     92  51  24 N14       29.97S
SCOTTSBLUFF    SUNNY     97  48  18 VRB5      29.96F HX  93
SIDNEY         SUNNY     98  42  14 N14G22    30.00F HX  94

...WESTERN AND NORTH CENTRAL NEBRASKA...

CITY           SKY/WX    TMP DP  RH WIND       PRES   REMARKS
VALENTINE      SUNNY     95  57  27 N18G25    29.85S HX  94
AINSWORTH      SUNNY     93  63  36 NW14      29.84R HX  94
ONEILL         CLOUDY    96  67  38 S13       29.78S HX 100
BROKEN BOW     CLOUDY    88  73  61 W12       29.85R HX  95
IMPERIAL       SUNNY     95  63  34 VRB6      29.91F HX  96
NORTH PLATTE   SUNNY     93  70  46 W9        29.87S HX  99
MCCOOK         CLOUDY    93  71  48 SE6       29.86F HX 100

...EASTERN NEBRASKA...

CITY           SKY/WX    TMP DP  RH WIND       PRES   REMARKS
NORFOLK        SUNNY     90  73  57 S13       29.78F HX  98
SO SIOUX CITY  SUNNY     93  77  59 S13       29.76F HX 107
TEKAMAH        SUNNY     91  75  59 S14       29.78F HX 101
COLUMBUS       SUNNY     91  70  49 SW13      29.79F HX  97
ALBION         PTSUNNY   89  73  57 S9        29.79F HX  97
OMAHA EPPLEY   MOSUNNY   92  74  55 S15       29.79F HX 101
OFFUTT AFB     SUNNY     91  76  61 S12       29.80F HX 103
MILLARD        SUNNY     92  75  59 S9G17     29.80F HX 103
LINCOLN        CLOUDY    90  74  59 S8        29.82F HX  99
NEBRASKA CITY  CLOUDY    87  78  75 S8        29.83F HX 100
BEATRICE       CLOUDY    91  73  55 S8        29.83S HX 100
FALLS CITY     CLOUDY    90  75  61 S9        29.84F HX 100

...NORTHERN KANSAS...

CITY           SKY/WX    TMP DP  RH WIND       PRES   REMARKS
GOODLAND       SUNNY    100  52  19 N10       29.94F HX  97
HILL CITY      SUNNY    100  63  29 W10       29.82F HX 102
NORTON         CLEAR     99  52  20 S5        29.84F HX  96
SMITH CENTER   SUNNY    104  61  24 S18       29.80F HX 105
BELOIT         SUNNY    100  63  28 S21G28    29.79F HX 102
HAYS           SUNNY    106  55  18 SW17G25   29.81S HX 105
RUSSELL        SUNNY    103  56  21 S22G33    29.81F HX 102
CONCORDIA      SUNNY     98  67  36 S15G28    29.82F HX 102
SALINA         MOSUNNY  100  63  29 S16G28    29.82F HX 102
TOPEKA         CLOUDY    94  70  45 S12       29.86F HX 100



USA.gov is the U.S. government's official web portal to all federal, state and local government web resources and services.